This is the latest recevied weather packets stored in our database for station/object GCEMA. If no packets are shown the sender has not sent any weather packets the latest 10 day(s).
| Time | Temp. | Humidity | Pressure | Rain* | Wind** | Luminosity | Snow |
|---|---|---|---|---|---|---|---|
| 1778175387 | 16.11° C | - | 1013.3 hPa | 0 mm | 0 m/s | - | - |
| 1778175204 | 16.11° C | - | 1013.4 hPa | 0 mm | 0 m/s | - | - |
| 1778175025 | 17.22° C | - | 1013.5 hPa | 0 mm | 0 m/s | - | - |
| 1778174845 | 16.67° C | - | 1013.6 hPa | 0 mm | 0 m/s | - | - |
| 1778174486 | 16.11° C | - | 1013.8 hPa | 0 mm | 0 m/s | - | - |
| 1778174304 | 16.67° C | - | 1013.8 hPa | 0 mm | 0 m/s | - | - |
| 1778174124 | 15.56° C | - | 1013.7 hPa | 0 mm | 0 m/s | - | - |
| 1778173945 | 15.56° C | - | 1013.8 hPa | 0 mm | 0 m/s | - | - |
| 1778173765 | 16.11° C | - | 1013.7 hPa | 0 mm | 0 m/s | - | - |
| 1778173585 | 15.56° C | - | 1013.9 hPa | 0 mm | 0 m/s | - | - |
| 1778173403 | 15° C | - | 1013.9 hPa | 0 mm | 0 m/s | - | - |
| 1778173224 | 15.56° C | - | 1013.9 hPa | 0 mm | 0 m/s | - | - |
| 1778173044 | 17.22° C | - | 1013.9 hPa | 0 mm | 0 m/s | - | - |
| 1778172864 | 16.67° C | - | 1014 hPa | 0 mm | 0 m/s | - | - |
| 1778172685 | 17.22° C | - | 1014 hPa | 0 mm | 0 m/s | - | - |
| 1778172502 | 17.22° C | - | 1014.1 hPa | 0 mm | 0 m/s | - | - |
| 1778172323 | 16.11° C | - | 1014.1 hPa | 0 mm | 0 m/s | - | - |
| 1778172144 | 16.67° C | - | 1014 hPa | 0 mm | 0 m/s | - | - |
| 1778171964 | 16.11° C | - | 1014.2 hPa | 0 mm | 0 m/s | - | - |
| 1778171602 | 15° C | - | 1014.2 hPa | 0 mm | 0 m/s | - | - |
| 1778171422 | 16.67° C | - | 1014.2 hPa | 0 mm | 0 m/s | - | - |
| 1778171243 | 16.67° C | - | 1014.4 hPa | 0 mm | 0 m/s | - | - |
| 1778171064 | 14.44° C | - | 1014.5 hPa | 0 mm | 0 m/s | - | - |
| 1778170884 | 14.44° C | - | 1014.5 hPa | 0 mm | 0 m/s | - | - |
| 1778170701 | 16.11° C | - | 1014.3 hPa | 0 mm | 0 m/s | - | - |
* Rain latest hour (hover to see other rain measurements)
** Current wind speed in m/s (hover to see current wind gust speed)